Regional Weather Roundup
Issued by NWS

Home | Current Version | Previous Version | Graphics & Text | Print | Product List | Glossary On
Versions: 1 2 3 4 5 6 7 8 9 10 11 12 13 14 15 16 17 18 19 20 21 22 23 24 25 26 27 28 29 30 31 32 33 34 35 36 37 38 39 40 41 42 43 44 45 46 47 48 49 50
000
ASUS43 KLMK 281110
RWRKY
KENTUCKY REGIONAL WEATHER ROUNDUP
NATIONAL WEATHER SERVICE LOUISVILLE KY
700 AM EDT TUE MAR 28 2017

NOTE "FAIR" INDICATES FEW OR NO CLOUDS BELOW 12,000 FEET
WITH NO SIGNIFICANT WEATHER AND/OR OBSTRUCTIONS TO VISIBILITY.

KYZ001>023-026-027-061>063-070>075-281200-
WESTERN AND SOUTH CENTRAL KENTUCKY

CITY           SKY/WX    TMP DP  RH WIND       PRES   REMARKS
PADUCAH        CLOUDY    56  51  84 N5        29.95R
HENDERSON      CLOUDY    55  52  88 NW8       29.93R
OWENSBORO      MOCLDY    55  54  96 NW7       29.93R
HOPKINSVILLE   CLOUDY    54  54 100 W5        29.94R
BOWLING GREEN  CLOUDY    57  54  89 W3        29.93R
GLASGOW        CLOUDY   N/A N/A N/A W5        29.93R
$$

KYZ024-025-028>034-038-045-046-053-281200-
NORTH CENTRAL KENTUCKY

CITY           SKY/WX    TMP DP  RH WIND       PRES   REMARKS
LOUISVILLE/SDF CLOUDY    57  54  89 W8        29.91R
LOUISVILLE/LOU CLOUDY    57  54  89 W7        29.91R
FORT KNOX      CLOUDY    55  55 100 SW6       29.89R
$$

KYZ035>037-039>044-047>052-055>060-089>105-281200-
NORTHEAST KENTUCKY

CITY           SKY/WX    TMP DP  RH WIND       PRES   REMARKS
LEXINGTON      CLOUDY    56  53  90 W8        29.89R
COVINGTON      DRZL/FOG  55  55 100 W8        29.87R VSB 1/2
FRANKFORT      CLOUDY    56  52  86 VRB3      29.88R
$$

KYZ054-064>069-076>088-106>120-281200-
SOUTHEAST KENTUCKY

CITY           SKY/WX    TMP DP  RH WIND       PRES   REMARKS
JACKSON        CLOUDY    56  53  90 SW6       29.89R
LONDON         CLOUDY    56  52  86 SW6       29.91R
SOMERSET       CLOUDY    54  54 100 W6        29.93R
MIDDLESBORO    CLOUDY    55  55 100 CALM      29.92R
MONTICELLO     CLOUDY    57  55  93 W14       29.94R
$$





USA.gov is the U.S. government's official web portal to all federal, state and local government web resources and services.